Weather History for KFQD - May, 2014

Change the Weather History Date:

Friday, May 23, 2014

  Actual Average (KAVL) Record (KAVL)
Temperature  
Mean Temperature 73 °F 65 °F  
Max Temperature 85 °F 76 °F 90 °F (1953)
Min Temperature 61 °F 53 °F 35 °F (2002)
Degree Days  
Heating Degree Days 0 2  
Month to date heating degree days 95  
Since 1 July heating degree days 4167  
Cooling Degree Days 8 2  
Month to date cooling degree days 30  
Year to date cooling degree days 38  
Growing Degree Days 23 (Base 50)    
Moisture  
Dew Point 60 °F    
Average Humidity 66    
Maximum Humidity 97    
Minimum Humidity 40    
Precipitation  
Precipitation 0.00 in 0.12 in 2.29 in (1913)
Month to date precipitation 2.67  
Year to date precipitation 17.26  
Snow  
Snow 0.00 in 0.00 in 0.00 in ()
Month to date snowfall 0.0  
Since 1 July snowfall 9.9  
Snow Depth -    
Sea Level Pressure  
Sea Level Pressure 30.03 in    
Wind  
Wind Speed 3 mph (NW)    
Max Wind Speed 15 mph    
Max Gust Speed 25 mph    
Visibility 10 miles    
Events Rain , Thunderstorm    
T = Trace of Precipitation, MM = Missing Value Source: NWS Daily Summary

Daily Weather History Graph

Daily Weather History Graph

Search for Another Location

Airport or City:

Trip Planner

Search our weather history database for the weather conditions in past years. The results will help you decide how hot, cold, wet, or windy it might be!

Date:

Astronomy

May. 23, 2014 Rise Set
Actual Time 6:17 AM EDT 8:31 PM EDT
Civil Twilight 5:49 AM EDT 9:00 PM EDT
Nautical Twilight 5:13 AM EDT 9:35 PM EDT
Astronomical Twilight 4:35 AM EDT 10:14 PM EDT
Moon 2:59 AM EDT (5/23) 3:33 PM EDT (5/23)
Length of Visible Light 15h 11m
Length of Day
14h 13m
Waning Crescent, 27% of the Moon is Illuminated
May 23
Waning Crescent
May 28
New
Jun 5
First Quarter
Jun 13
Full
Jun 19
Last Quarter

Hourly Weather History & Observations

Time (EDT) Temp. Heat Index Dew Point Humidity Pressure Visibility Wind Dir Wind Speed Gust Speed Precip Events Conditions
12:15 AM 73.6 °F - 63.1 °F 70% 30.01 in 10.0 mi Calm Calm - N/A   Clear
12:35 AM 71.8 °F - 63.5 °F 75% 30.01 in 10.0 mi NW 3.5 mph - N/A   Clear
12:55 AM 71.8 °F - 63.1 °F 74% 30.02 in 10.0 mi Calm Calm - N/A   Clear
1:15 AM 71.2 °F - 63.0 °F 75% 30.02 in 10.0 mi Calm Calm - N/A   Clear
1:35 AM 70.9 °F - 62.8 °F 75% 30.01 in 10.0 mi Calm Calm - N/A   Clear
1:55 AM 69.6 °F - 62.4 °F 78% 30.01 in 10.0 mi Calm Calm - N/A   Clear
2:15 AM 68.7 °F - 62.6 °F 81% 30.01 in 10.0 mi Calm Calm - N/A   Clear
2:35 AM 67.1 °F - 62.4 °F 85% 30.01 in 10.0 mi Calm Calm - N/A   Clear
2:55 AM 66.4 °F - 62.1 °F 86% 30.00 in 10.0 mi Calm Calm - N/A   Clear
3:15 AM 67.5 °F - 61.9 °F 82% 30.00 in 10.0 mi Calm Calm - N/A   Clear
3:35 AM 67.1 °F - 61.7 °F 83% 30.00 in 10.0 mi Calm Calm - N/A   Clear
3:55 AM 64.4 °F - 61.7 °F 91% 30.01 in 10.0 mi SSE 4.6 mph - N/A   Clear
4:15 AM 65.5 °F - 62.1 °F 89% 30.00 in 10.0 mi SSW 8.1 mph - N/A   Clear
4:35 AM 66.4 °F - 61.9 °F 85% 30.01 in 10.0 mi Calm Calm - N/A   Clear
4:55 AM 65.8 °F - 62.1 °F 88% 30.01 in 10.0 mi Calm Calm - N/A   Clear
5:15 AM 62.8 °F - 61.0 °F 94% 30.02 in 10.0 mi ENE 3.5 mph - N/A   Clear
5:35 AM 62.8 °F - 61.2 °F 94% 30.02 in 10.0 mi Calm Calm - N/A   Clear
5:55 AM 62.4 °F - 61.5 °F 97% 30.02 in 7.0 mi WNW 3.5 mph - N/A   Clear
6:15 AM 62.6 °F - 61.0 °F 94% 30.03 in 10.0 mi Calm Calm - N/A   Clear
6:35 AM 62.6 °F - 61.5 °F 96% 30.03 in 7.0 mi NW 3.5 mph - N/A   Clear
6:55 AM 61.7 °F - 60.8 °F 97% 30.05 in 5.0 mi WNW 8.1 mph - N/A   Clear
7:15 AM 62.2 °F - 61.2 °F 96% 30.06 in 7.0 mi NW 6.9 mph - N/A   Clear
7:35 AM 65.3 °F - 62.2 °F 90% 30.06 in 10.0 mi Calm Calm - N/A   Clear
7:55 AM 64.6 °F - 62.6 °F 93% 30.06 in 10.0 mi Calm Calm - N/A   Clear
8:15 AM 67.5 °F - 63.5 °F 87% 30.06 in 10.0 mi Calm Calm - N/A   Clear
8:35 AM 68.4 °F - 64.8 °F 88% 30.06 in 10.0 mi Calm Calm - N/A Thunderstorm Clear
8:55 AM 71.8 °F - 64.2 °F 77% 30.07 in 10.0 mi Calm Calm - N/A   Clear
9:15 AM 70.3 °F - 64.4 °F 81% 30.12 in 10.0 mi North 5.8 mph - N/A   Scattered Clouds
9:35 AM 69.1 °F - 63.7 °F 83% 30.13 in 7.0 mi North 9.2 mph 24.2 mph N/A Rain , Thunderstorm Light Thunderstorms and Rain
9:55 AM 68.7 °F - 60.1 °F 74% 30.06 in 10.0 mi Calm Calm - N/A   Scattered Clouds
10:15 AM 68.9 °F - 59.9 °F 73% 30.08 in 10.0 mi West 6.9 mph - N/A   Clear
10:35 AM 72.0 °F - 60.6 °F 67% 30.09 in 10.0 mi West 5.8 mph - N/A   Clear
10:55 AM 74.3 °F - 59.5 °F 60% 30.08 in 10.0 mi West 5.8 mph - N/A   Clear
11:15 AM 75.2 °F - 58.6 °F 56% 30.08 in 10.0 mi West 3.5 mph - N/A   Clear
11:40 AM 78.1 °F - 59.2 °F 52% 30.07 in 10.0 mi West 6.9 mph - N/A   Clear
11:55 AM 78.6 °F - 58.5 °F 50% 30.06 in 10.0 mi West 10.4 mph 16.1 mph N/A   Clear
12:35 PM 78.1 °F - 57.9 °F 50% 30.06 in 10.0 mi West 5.8 mph - N/A   Clear
12:55 PM 79.3 °F - 58.3 °F 48% 30.06 in 10.0 mi West 9.2 mph 17.3 mph N/A   Clear
1:15 PM 79.3 °F - 58.1 °F 48% 30.06 in 10.0 mi West 6.9 mph 18.4 mph N/A   Clear
1:35 PM 80.1 °F 80.7 °F 58.8 °F 48% 30.06 in 10.0 mi West 15.0 mph 20.7 mph N/A   Clear
1:55 PM 80.2 °F 80.8 °F 58.6 °F 48% 30.05 in 10.0 mi West 8.1 mph 18.4 mph N/A   Clear
2:15 PM 81.3 °F 81.8 °F 59.7 °F 48% 30.04 in 10.0 mi WNW 11.5 mph 21.9 mph N/A   Clear
2:55 PM 83.5 °F 83.9 °F 61.3 °F 47% 30.03 in 10.0 mi WNW 4.6 mph - N/A   Clear
3:15 PM 82.6 °F 82.8 °F 60.1 °F 46% 30.02 in 10.0 mi West 5.8 mph - N/A   Clear
3:35 PM 81.1 °F 82.1 °F 62.1 °F 52% 30.02 in 10.0 mi West 6.9 mph - N/A   Clear
4:20 PM 82.9 °F 83.0 °F 59.5 °F 45% 30.01 in 10.0 mi WNW 10.4 mph 21.9 mph N/A   Clear
4:35 PM 82.4 °F 82.5 °F 59.4 °F 45% 30.01 in 10.0 mi NNW 8.1 mph 17.3 mph N/A   Clear
4:55 PM 84.9 °F 84.4 °F 58.6 °F 41% 30.00 in 10.0 mi WNW 11.5 mph 25.3 mph N/A   Clear
5:15 PM 85.3 °F 84.8 °F 59.2 °F 41% 30.00 in 10.0 mi NW 10.4 mph 16.1 mph N/A   Clear
5:35 PM 85.1 °F 84.4 °F 58.1 °F 40% 30.00 in 10.0 mi NNW 10.4 mph 16.1 mph N/A   Clear
5:55 PM 84.4 °F 84.0 °F 59.0 °F 42% 30.00 in 10.0 mi NW 6.9 mph 23.0 mph N/A   Clear
6:15 PM 82.9 °F 82.8 °F 58.6 °F 44% 30.00 in 10.0 mi NNW 9.2 mph 17.3 mph N/A   Clear
6:40 PM 80.8 °F 81.0 °F 57.4 °F 45% 30.00 in 10.0 mi NNW 8.1 mph - N/A   Clear
6:55 PM 81.3 °F 81.4 °F 57.9 °F 45% 30.00 in 10.0 mi NW 6.9 mph - N/A   Clear
7:15 PM 81.1 °F 81.2 °F 57.6 °F 44% 30.00 in 10.0 mi NNW 5.8 mph 19.6 mph N/A   Clear
7:35 PM 79.9 °F - 58.1 °F 47% 30.01 in 10.0 mi Calm Calm - N/A   Clear
8:00 PM 79.2 °F - 58.3 °F 49% 30.01 in 10.0 mi Calm Calm - N/A   Clear
8:20 PM 77.7 °F - 58.5 °F 51% 30.02 in 10.0 mi NNW 3.5 mph - N/A   Clear
8:35 PM 77.0 °F - 57.6 °F 51% 30.02 in 10.0 mi NNW 5.8 mph - N/A   Clear
8:55 PM 76.1 °F - 57.2 °F 52% 30.02 in 10.0 mi NNW 3.5 mph - N/A   Clear
9:15 PM 73.8 °F - 57.9 °F 58% 30.03 in 10.0 mi NNW 3.5 mph - N/A   Clear
9:35 PM 75.0 °F - 56.7 °F 53% 30.03 in 10.0 mi NW 4.6 mph - N/A   Clear
9:55 PM 74.7 °F - 56.1 °F 52% 30.04 in 10.0 mi NNW 6.9 mph - N/A   Clear
10:15 PM 74.5 °F - 55.8 °F 52% 30.05 in 10.0 mi NNW 4.6 mph - N/A   Clear
10:35 PM 73.6 °F - 56.1 °F 54% 30.05 in 10.0 mi NNW 3.5 mph - N/A   Clear
10:55 PM 69.8 °F - 58.1 °F 66% 30.06 in 10.0 mi East 5.8 mph - N/A   Clear
11:15 PM 71.1 °F - 57.9 °F 63% 30.06 in 10.0 mi East 3.5 mph - N/A   Clear
11:35 PM 70.0 °F - 58.1 °F 66% 30.06 in 10.0 mi Calm Calm - N/A   Clear
11:55 PM 70.9 °F - 57.2 °F 62% 30.06 in 10.0 mi NE 5.8 mph - N/A   Clear